Starlink 32599

operational
NORAD ID: 62048 Int'l Des: 2024-216 Owner: SPXS Country: US Constellation: starlink
LEOCIRCULAR

关于 Starlink 32599

正在加载描述...

实时位置

正在加载3D地球...

即将过境

高度历史

Altitude vs Time

uPlot chart will show altitude changes over time

两行轨道根数

1 62048U 24216S 25260.10400229 .00034838 00000-0 12700-2 0 9996
2 62048 43.0034 163.9353 0002761 256.7101 103.3443 15.27566385 47247
Epoch: Sep 17, 2025 • Age: 9 hours

当前状态

高度 482.9 km
速度 7.63 km/s
星下点 -4.19°S, 177.56°W
发射日期 Nov 21, 2024
运行时间 0.8 years
类型 internet

技术详情

分类 Payload
质量 730.00 kg
干质量 700.00 kg
总质量 730.00 kg
长度 0.30 m
直径 4.10 m
跨度 29.00 m
形状 Box + pan
制造商 SPXS
平台类型 Starlink V2M
阶段状态 In Orbit
所有者/国家 SPXS/US

大型星座

Loading constellations...